Погода в Туманове

Россия / Смоленская область     55°25′08″N   34°38′46″E
темп.,
°C
ветер,
м/с
пор.,
м/с
влажн.,
%
обл.,
%
осадки,
мм/ч
давл.,
гПа
погр.,
м
14 мая, пт
пт1400:00+7ююв369358 0.0 1015112
03:00+6ююв36945 0.0 101696
06:00+7юв389343 0.0 1016179
09:00+13юв597891 0.0 1015468
12:00+17юв686099 0.0 10141238
15:00+19юв575536 0.0 10121525
18:00+16юв598496 1.3 1010521
21:00+13вюв41197100 2.4 1010344
15 мая, сб
сб1500:00+11вюв499720 2.0 1009223
03:00+11юв379884 2.0 1008125
06:00+12ююв4996100 0.0 1008213
09:00+17ю58775 0.0 1008513
12:00+19ю576364 0.4 10081381
15:00+20ю785977 0.9 10071521
18:00+17ююз69776 1.1 1007886
21:00+13ю410929 2.8 1008296
16 мая, вс
вс1600:00+11ю512965 0.0 1008400
03:00+11ю512968 0.0 1009329
06:00+11ююз6139471 0.1 1010386
09:00+14юз61088100 0.6 1011516
12:00+15юз488394 0.1 1012670
15:00+18юз687232 1.5 10121080
18:00+18зюз57792 2.1 1012822
21:00+14юз33915 2.3 101330
17 мая, пн
пн1700:00+12ю229284 0.0 101414
03:00+11ююв2293100 0.0 101416
06:00+12юв359331 0.0 1014106
09:00+17вюв4676100 0.0 1013392
12:00+21в676593 0.0 1011970
15:00+24вюв7106117 0.0 10091743
18:00+23вюв81369100 0.1 1006895
21:00+19юв7167888 0.4 1006555
18 мая, вт
вт1800:00+17юв6158689 0.3 1006441
03:00+16ююв369699 0.6 1006189
06:00+14зюз4594100 0.3 1008314
09:00+16зсз3382100 0.3 1008473
12:00+18юз2273100 0.6 1009855
15:00+18ссв2275100 1.5 1009623
18:00+17сз368433 1.0 1008540
21:00+14з339211 1.9 100933